Weather reports worldwide

Advertisment
Catania/Sigonella, Italy (16459): temperature & dewpoint: 24.09.2020 23:00:00 - 30.09.2020 23:00:00 (CEST)Catania/Sigonella, Italy (16459): wind speed: 24.09.2020 23:00:00 - 30.09.2020 23:00:00 (CEST)Catania/Sigonella, Italy (16459): wind direction: 24.09.2020 23:00:00 - 30.09.2020 23:00:00 (CEST)Catania/Sigonella, Italy (16459): reduced air pressure: 24.09.2020 23:00:00 - 30.09.2020 23:00:00 (CEST)Catania/Sigonella, Italy (16459): visibility: 24.09.2020 23:00:00 - 30.09.2020 23:00:00 (CEST)
Date & Time tt [°C] td [°C] ff [km/h] ff [kn] dd ppp [hPa] vv [km]
30.09.2020 23:00:00 23,4 23,4 4 2 W 1013,7 10
30.09.2020 22:00:00 23,0 23,0 8 4 NE - 10
30.09.2020 21:00:00 24,0 24,0 9 5 NNE - 10
30.09.2020 20:00:00 23,8 23,8 11 6 NE 1013,4 10
30.09.2020 19:00:00 24,0 24,0 16 9 ENE - 10
30.09.2020 18:00:00 25,0 22,0 24 13 E - 10
30.09.2020 17:00:00 25,8 21,2 26 14 N 1013,5 10
30.09.2020 16:00:00 26,0 20,0 26 14 E - 10
30.09.2020 15:00:00 27,0 20,0 26 14 E - 10
30.09.2020 14:00:00 26,8 16,1 8 4 E 1014,3 10
30.09.2020 13:00:00 27,0 17,0 8 4 NNW - 10
30.09.2020 12:00:00 25,0 16,0 5 3 WNW - 10
30.09.2020 11:00:00 23,4 17,4 8 4 W 1016,4 10
30.09.2020 10:00:00 21,0 18,0 8 4 NNE - 10
30.09.2020 09:00:00 18,0 18,0 8 4 W - 10
30.09.2020 08:00:00 17,2 16,9 5 3 WSW 1016,9 15
30.09.2020 07:00:00 17,0 17,0 9 5 W - 10
30.09.2020 06:00:00 17,0 17,0 8 4 W - 10
30.09.2020 05:00:00 19,0 19,0 9 5 WSW 1016,9 10
30.09.2020 04:00:00 19,0 19,0 8 4 W - 10
30.09.2020 03:00:00 19,0 19,0 11 6 WNW - 10
30.09.2020 02:00:00 19,6 19,6 5 3 SW 1018,0 10
30.09.2020 01:00:00 20,0 20,0 9 5 W - 10
30.09.2020 00:00:00 20,0 20,0 11 6 W - 10
29.09.2020 23:00:00 20,4 20,4 8 4 W 1018,5 10
29.09.2020 22:00:00 22,0 22,0 8 4 NNW - 10
29.09.2020 21:00:00 22,0 22,0 5 3 SE - 10
29.09.2020 20:00:00 23,4 23,4 8 4 E 1018,1 12
29.09.2020 19:00:00 24,0 24,0 16 9 E - 10
29.09.2020 18:00:00 24,0 24,0 21 11 E - 10
29.09.2020 17:00:00 25,0 22,7 21 11 E 1017,4 14
29.09.2020 16:00:00 26,0 22,0 28 15 ENE - 10
29.09.2020 15:00:00 29,0 14,0 22 12 W - 10
29.09.2020 14:00:00 28,4 13,9 24 13 W 1018,2 14
29.09.2020 13:00:00 27,0 14,0 22 12 W - 10
29.09.2020 12:00:00 26,0 13,0 24 13 W - 10
29.09.2020 11:00:00 25,0 15,6 22 12 W 1019,3 14
29.09.2020 10:00:00 23,0 16,0 22 12 W - 10
29.09.2020 09:00:00 21,0 17,0 22 12 W - 10
29.09.2020 08:00:00 19,0 19,0 18 10 WSW 1018,4 16
29.09.2020 07:00:00 19,0 19,0 21 11 WSW - 10
29.09.2020 06:00:00 19,0 19,0 21 11 W - 10
29.09.2020 05:00:00 18,6 18,6 21 11 W 1017,9 13
29.09.2020 04:00:00 18,0 18,0 18 10 W - 10
29.09.2020 03:00:00 18,0 18,0 13 7 W - 10
29.09.2020 02:00:00 18,4 18,4 11 6 W 1018,6 13
29.09.2020 01:00:00 19,0 19,0 16 9 WSW - 10
29.09.2020 00:00:00 19,0 19,0 21 11 SW - 10
28.09.2020 23:00:00 20,4 20,4 16 9 WSW 1018,4 13
28.09.2020 22:00:00 21,0 20,0 18 10 WSW - 10
28.09.2020 21:00:00 21,0 20,0 26 14 WSW - 10
28.09.2020 20:00:00 23,0 15,6 13 7 W 1016,6 10
28.09.2020 19:00:00 24,0 14,0 21 11 WSW - 10
28.09.2020 18:00:00 26,0 13,0 24 13 W - 10
28.09.2020 17:00:00 26,4 9,3 28 15 W 1015,6 15
28.09.2020 16:00:00 26,0 10,0 31 17 W - 10
28.09.2020 15:00:00 26,0 10,0 26 14 W - 10
28.09.2020 14:00:00 25,2 10,7 24 13 NNE 1016,2 15
28.09.2020 13:00:00 25,0 12,0 24 13 WNW - 10
28.09.2020 12:00:00 24,0 13,0 22 12 W - 10
28.09.2020 11:00:00 24,0 13,5 21 11 W 1016,3 15
28.09.2020 10:00:00 20,0 15,0 15 8 WNW - 10
28.09.2020 09:00:00 18,0 14,0 15 8 W - 10
28.09.2020 08:00:00 17,2 14,7 18 10 WNW 1014,6 10
28.09.2020 07:00:00 17,0 15,0 18 10 WNW - 10
28.09.2020 06:00:00 18,0 18,0 13 7 WNW - 8
28.09.2020 05:00:00 17,8 17,8 9 5 WNW 1012,8 8
28.09.2020 04:00:00 18,0 18,0 18 10 W - 10
28.09.2020 03:00:00 19,0 19,0 16 9 W - 8
28.09.2020 02:00:00 19,2 19,2 16 9 W 1011,4 8
28.09.2020 01:00:00 19,0 19,0 16 9 SW - 8
28.09.2020 00:00:00 20,0 20,0 16 9 SW - 10
27.09.2020 23:00:00 20,2 20,2 15 8 WSW 1009,8 8
27.09.2020 22:00:00 21,0 21,0 11 6 W - 5
27.09.2020 21:00:00 21,0 21,0 8 4 N - 4,0
27.09.2020 20:00:00 22,0 22,0 9 5 NW 1009,4 6
27.09.2020 19:00:00 22,0 22,0 8 4 SSE - 3,5
27.09.2020 18:00:00 25,0 21,0 21 11 S - 7
27.09.2020 17:00:00 25,4 20,0 22 12 S 1008,3 10
27.09.2020 16:00:00 26,0 19,0 13 7 SSE - 10
27.09.2020 15:00:00 26,0 19,0 18 10 S - 10
27.09.2020 14:00:00 25,0 17,7 22 12 SW 1010,4 10
27.09.2020 13:00:00 24,0 18,0 4 2 NNW - 10
27.09.2020 12:00:00 22,0 17,0 8 4 NNW - 10
27.09.2020 11:00:00 21,2 16,2 8 4 NW 1012,1 12
27.09.2020 10:00:00 20,0 16,0 8 4 WNW - 10
27.09.2020 09:00:00 17,0 15,0 5 3 NW - 10
27.09.2020 08:00:00 17,2 14,8 9 5 W 1011,4 13
27.09.2020 07:00:00 17,0 14,0 8 4 W - 10
27.09.2020 06:00:00 18,0 14,0 13 7 NW - 10
27.09.2020 05:00:00 17,8 14,7 15 8 W 1010,4 12
27.09.2020 04:00:00 18,0 14,0 9 5 W - 10
27.09.2020 03:00:00 18,0 14,0 5 3 WNW - 10
27.09.2020 02:00:00 18,2 15,1 18 10 W 1010,5 13
27.09.2020 01:00:00 20,0 13,0 18 10 W - 10
27.09.2020 00:00:00 21,0 15,0 13 7 W - 10
26.09.2020 23:00:00 21,6 14,5 18 10 W 1010,2 12
26.09.2020 22:00:00 25,0 10,0 18 10 W - 10
26.09.2020 21:00:00 25,0 10,0 24 13 WSW - 10
26.09.2020 20:00:00 25,2 9,9 24 13 W 1008,3 10
26.09.2020 19:00:00 25,0 10,0 24 13 W - 10
26.09.2020 18:00:00 25,0 10,0 31 17 W - 10
26.09.2020 17:00:00 25,2 9,9 37 20 W 1006,3 10
26.09.2020 16:00:00 25,0 10,0 50 27 W - 10
26.09.2020 15:00:00 25,0 9,0 46 25 W - 10
26.09.2020 14:00:00 25,2 7,8 46 25 W 1006,0 10
26.09.2020 13:00:00 25,0 10,0 37 20 WNW - 10
26.09.2020 12:00:00 24,0 11,0 39 21 W - 10
26.09.2020 11:00:00 23,2 11,9 48 26 W 1006,5 10
26.09.2020 10:00:00 23,0 13,0 50 27 W - 10
26.09.2020 09:00:00 22,0 15,0 39 21 W - 10
26.09.2020 08:00:00 20,6 15,6 31 17 WSW 1005,5 10
26.09.2020 07:00:00 21,0 16,0 29 16 W - 10
26.09.2020 06:00:00 27,0 21,0 26 14 W - 10
26.09.2020 05:00:00 22,2 16,2 31 17 W 1004,8 10
26.09.2020 04:00:00 23,0 16,0 34 18 W - 10
26.09.2020 03:00:00 24,0 16,0 35 19 W - 10
26.09.2020 02:00:00 24,2 19,7 24 13 W 1006,1 10
26.09.2020 01:00:00 25,0 23,0 22 12 WSW - 8
26.09.2020 00:00:00 26,0 22,0 18 10 W - 10
25.09.2020 23:00:00 26,6 21,8 18 10 WNW 1007,4 10
25.09.2020 22:00:00 27,0 21,0 16 9 W - 10
25.09.2020 21:00:00 28,0 19,0 21 11 WSW - 10
25.09.2020 20:00:00 28,4 17,0 26 14 WSW 1006,5 11
25.09.2020 19:00:00 30,0 17,0 29 16 W - 10
25.09.2020 18:00:00 31,0 21,0 21 11 WSW - 10
25.09.2020 17:00:00 32,2 19,5 26 14 SW 1006,8 13
25.09.2020 16:00:00 33,0 16,0 29 16 WSW - 10
25.09.2020 15:00:00 33,0 16,0 28 15 SW - 10
25.09.2020 14:00:00 32,6 16,4 24 13 WSW 1008,7 15
25.09.2020 13:00:00 32,0 20,0 22 12 WSW - 10
25.09.2020 12:00:00 29,0 21,0 18 10 WSW - 10
25.09.2020 11:00:00 26,8 17,3 15 8 WNW 1012,4 13
25.09.2020 10:00:00 25,0 18,0 15 8 NNE - 10
25.09.2020 09:00:00 23,0 19,0 15 8 W - 10
25.09.2020 08:00:00 20,6 19,2 11 6 WNW 1013,5 12
25.09.2020 07:00:00 20,0 20,0 11 6 W - 10
25.09.2020 06:00:00 20,0 20,0 9 5 W - 10
25.09.2020 05:00:00 20,4 20,4 11 6 NW 1014,0 10
25.09.2020 04:00:00 22,0 22,0 9 5 WSW - 10
25.09.2020 03:00:00 23,0 23,0 8 4 WNW - 10
25.09.2020 02:00:00 23,0 23,0 9 5 NW 1015,4 10
25.09.2020 01:00:00 23,0 23,0 9 5 W - 10
25.09.2020 00:00:00 24,0 24,0 8 4 NW - 10
24.09.2020 23:00:00 24,2 24,2 5 3 NNW 1016,1 10

tt = temperature
td = dewpoint
ff = wind speed
dd = wind direction
ppp = reduced air pressure
vv = visibility

Next stations